Altus AFB, OK

11:45 PM CST on December 17, 2017 (GMT -0600)
Altus Air Force Base

Weather History for KLTS - March, 2012

Change the Weather History Date:

Thursday, March 22, 2012

  Actual Average Record
Temperature  
Mean Temperature 48 °F -  
Max Temperature 57 °F 64 °F 87 °F (2011)
Min Temperature 40 °F 41 °F 21 °F (2002)
Degree Days  
Heating Degree Days 16    
Moisture  
Dew Point 44 °F    
Average Humidity 86    
Maximum Humidity 100    
Minimum Humidity 61    
Precipitation  
Precipitation 0.27 in - - ()
Sea Level Pressure  
Sea Level Pressure 29.82 in    
Wind  
Wind Speed 9 mph (North)    
Max Wind Speed 22 mph    
Max Gust Speed 24 mph    
Visibility 9 miles    
Events Rain    
Averages and records for this station are not official NWS values.
T = Trace of Precipitation, MM = Missing Value Source: NWS Daily Summary

Daily Weather History Graph

Daily Weather History Graph

Search for Another Location

Airport or City:

Trip Planner

Search our weather history database for the weather conditions in past years. The results will help you decide how hot, cold, wet, or windy it might be!

Date:

Astronomy

Mar. 22, 2012 Rise Set
Actual Time 7:37 AM CDT 7:50 PM CDT
Civil Twilight 7:12 AM CDT 8:15 PM CDT
Nautical Twilight 6:42 AM CDT 8:45 PM CDT
Astronomical Twilight 6:12 AM CDT 9:15 PM CDT
Moon 7:19 AM CDT (3/22) 8:13 PM CDT (3/22)
Length of Visible Light 13h 03m
Length of Day
12h 13m
New Moon, 0% of the Moon is Illuminated
Mar 22
New Moon
Mar 30
First Quarter
Apr 6
Full
Apr 13
Last Quarter
Apr 21
New

Hourly Weather History & Observations

Time (CDT) Temp. Windchill Dew Point Humidity Pressure Visibility Wind Dir Wind Speed Gust Speed Precip Events Conditions
12:55 AM 40.3 °F - 40.1 °F 99% 29.80 in 10.0 mi Calm Calm - N/A   Clear
1:55 AM 42.8 °F 38.0 °F 41.0 °F 93% 29.78 in 10.0 mi SW 8.1 mph - N/A   Clear
2:55 AM 41.4 °F 39.4 °F 39.9 °F 95% 29.78 in 10.0 mi WSW 3.5 mph - N/A   Clear
3:55 AM 41.5 °F - 40.1 °F 95% 29.76 in 10.0 mi Calm Calm - N/A   Clear
4:55 AM 41.7 °F 39.8 °F 41.2 °F 98% 29.74 in 10.0 mi SSE 3.5 mph - N/A   Mostly Cloudy
5:42 AM 42.8 °F 40.1 °F 42.8 °F 100% 29.73 in 10.0 mi SSE 4.6 mph - N/A   Partly Cloudy
5:55 AM 42.6 °F 38.4 °F 42.3 °F 99% 29.73 in 10.0 mi SE 6.9 mph - 0.00 in   Light Drizzle
6:55 AM 42.8 °F 39.3 °F 42.4 °F 99% 29.73 in 10.0 mi SE 5.8 mph - 0.02 in Rain Light Rain
7:12 AM 42.8 °F 39.3 °F 42.8 °F 100% 29.73 in 9.0 mi East 5.8 mph - N/A Rain Light Rain
7:17 AM 42.8 °F 38.6 °F 42.8 °F 100% 29.73 in 9.0 mi East 6.9 mph - N/A Rain Light Rain
7:22 AM 42.8 °F 38.0 °F 42.8 °F 100% 29.73 in 7.0 mi East 8.1 mph - N/A Rain Light Rain
7:45 AM 42.8 °F 36.2 °F 42.8 °F 100% 29.72 in 7.0 mi East 12.7 mph - N/A Rain Light Rain
7:55 AM 42.8 °F 36.6 °F 42.8 °F 100% 29.72 in 7.0 mi East 11.5 mph - 0.05 in Rain Light Rain
7:57 AM 42.8 °F 36.2 °F 42.8 °F 100% 29.72 in 6.0 mi East 12.7 mph - N/A Rain Light Rain
8:30 AM 42.8 °F 36.2 °F 42.8 °F 100% 29.72 in 6.0 mi ENE 12.7 mph - N/A Rain Light Rain
8:45 AM 42.8 °F 35.4 °F 42.8 °F 100% 29.72 in 5.0 mi ENE 15.0 mph - N/A Rain Light Rain
8:55 AM 43.7 °F 36.9 °F 43.5 °F 99% 29.71 in 5.0 mi ENE 13.8 mph - 0.07 in Rain Light Rain
9:31 AM 44.6 °F 37.8 °F 44.6 °F 100% 29.73 in 4.0 mi ENE 15.0 mph - N/A Rain Light Rain
9:34 AM 44.6 °F 38.1 °F 44.6 °F 100% 29.73 in 4.0 mi ENE 13.8 mph - N/A Rain Light Rain
9:40 AM 44.6 °F 37.2 °F 44.6 °F 100% 29.73 in 4.0 mi ENE 17.3 mph - N/A Rain Rain
9:48 AM 44.6 °F 37.4 °F 44.6 °F 100% 29.73 in 2.5 mi ENE 16.1 mph - N/A Rain Rain
9:55 AM 44.1 °F 36.5 °F 43.7 °F 99% 29.73 in 3.0 mi ENE 17.3 mph - 0.04 in Rain Rain
10:08 AM 44.6 °F 36.9 °F 44.6 °F 100% 29.74 in 3.0 mi NE 18.4 mph - N/A Rain Heavy Rain
10:18 AM 44.6 °F 36.9 °F 44.6 °F 100% 29.75 in 3.0 mi NE 18.4 mph - N/A Rain Heavy Rain
10:55 AM 45.9 °F 38.0 °F 44.4 °F 95% 29.78 in 10.0 mi NE 20.7 mph - 0.06 in   Light Drizzle
10:59 AM 46.4 °F 39.0 °F 42.8 °F 87% 29.79 in 10.0 mi NE 19.6 mph - N/A Rain Light Rain
11:13 AM 46.4 °F 38.5 °F 44.6 °F 93% 29.80 in 10.0 mi NE 21.9 mph - N/A Rain Light Rain
11:26 AM 46.4 °F 39.5 °F 44.6 °F 93% 29.81 in 10.0 mi NE 17.3 mph - N/A Rain Light Rain
11:46 AM 48.2 °F - 44.6 °F 87% 29.83 in 10.0 mi NE 20.7 mph - N/A   Light Drizzle
11:55 AM 47.7 °F - 43.9 °F 87% 29.83 in 10.0 mi NE 20.7 mph - 0.01 in   Light Drizzle
12:05 PM 48.2 °F - 44.6 °F 87% 29.83 in 10.0 mi NE 15.0 mph 24.2 mph N/A   Mostly Cloudy
12:36 PM 50.0 °F - 46.4 °F 87% 29.85 in 10.0 mi NNE 17.3 mph - N/A   Mostly Cloudy
12:41 PM 51.8 °F - 44.6 °F 76% 29.85 in 10.0 mi NNE 16.1 mph 21.9 mph N/A   Mostly Cloudy
12:55 PM 50.4 °F - 44.4 °F 80% 29.86 in 10.0 mi NNE 15.0 mph 21.9 mph 0.00 in   Mostly Cloudy
1:29 PM 51.8 °F - 44.6 °F 76% 29.86 in 10.0 mi NNE 11.5 mph - N/A   Mostly Cloudy
1:55 PM 52.7 °F - 44.6 °F 74% 29.85 in 10.0 mi North 5.8 mph - N/A   Mostly Cloudy
2:07 PM 51.8 °F - 42.8 °F 71% 29.85 in 10.0 mi NNW 9.2 mph - N/A   Light Drizzle
2:11 PM 51.8 °F - 44.6 °F 76% 29.86 in 10.0 mi NW 11.5 mph - N/A Rain Light Rain
2:23 PM 50.0 °F - 46.4 °F 87% 29.86 in 8.0 mi NW 8.1 mph - N/A Rain Light Rain
2:27 PM 50.0 °F - 48.2 °F 94% 29.86 in 10.0 mi NW 4.6 mph - N/A   Light Drizzle
2:30 PM 51.8 °F - 48.2 °F 88% 29.86 in 10.0 mi NW 4.6 mph - N/A   Scattered Clouds
2:55 PM 53.8 °F - 46.4 °F 76% 29.85 in 10.0 mi Variable 5.8 mph - 0.01 in   Partly Cloudy
3:04 PM 51.8 °F - 44.6 °F 76% 29.85 in 10.0 mi WNW 5.8 mph - N/A Rain Light Rain
3:05 PM 53.6 °F - 46.4 °F 77% 29.86 in 10.0 mi WNW 8.1 mph - N/A   Mostly Cloudy
3:07 PM 53.6 °F - 46.4 °F 77% 29.86 in 10.0 mi Variable 4.6 mph - N/A Rain Light Rain
3:25 PM 53.6 °F - 48.2 °F 82% 29.85 in 10.0 mi North 10.4 mph - N/A   Mostly Cloudy
3:32 PM 55.4 °F - 46.4 °F 72% 29.86 in 10.0 mi NNW 10.4 mph - N/A   Mostly Cloudy
3:45 PM 55.4 °F - 46.4 °F 72% 29.86 in 10.0 mi NNW 10.4 mph - N/A   Scattered Clouds
3:55 PM 55.6 °F - 46.9 °F 73% 29.86 in 10.0 mi NNW 10.4 mph 18.4 mph 0.01 in   Scattered Clouds
3:58 PM 55.4 °F - 46.4 °F 72% 29.86 in 10.0 mi NNW 12.7 mph - N/A   Mostly Cloudy
4:01 PM 55.4 °F - 46.4 °F 72% 29.86 in 10.0 mi NNW 15.0 mph - N/A   Mostly Cloudy
4:03 PM 55.4 °F - 46.4 °F 72% 29.86 in 10.0 mi NNW 12.7 mph - N/A   Light Drizzle
4:09 PM 53.6 °F - 46.4 °F 77% 29.86 in 10.0 mi NNW 15.0 mph 20.7 mph N/A   Mostly Cloudy
4:13 PM 55.4 °F - 46.4 °F 72% 29.86 in 10.0 mi NNW 13.8 mph 20.7 mph N/A   Mostly Cloudy
4:35 PM 57.2 °F - 46.4 °F 67% 29.86 in 10.0 mi NW 13.8 mph - N/A   Scattered Clouds
4:48 PM 57.2 °F - 44.6 °F 63% 29.87 in 10.0 mi WNW 16.1 mph - N/A   Mostly Cloudy
4:55 PM 56.5 °F - 44.8 °F 65% 29.87 in 10.0 mi WNW 16.1 mph - 0.00 in   Mostly Cloudy
5:12 PM 55.4 °F - 44.6 °F 67% 29.88 in 10.0 mi WNW 13.8 mph - N/A   Mostly Cloudy
5:55 PM 57.7 °F - 44.4 °F 61% 29.88 in 10.0 mi NW 15.0 mph - N/A   Clear
6:55 PM 57.0 °F - 44.4 °F 63% 29.90 in 10.0 mi NW 12.7 mph - N/A   Scattered Clouds
7:55 PM 52.7 °F - 44.2 °F 73% 29.91 in 10.0 mi NW 8.1 mph - N/A   Clear
8:55 PM 53.1 °F - 43.0 °F 69% 29.92 in 10.0 mi WNW 8.1 mph - N/A   Scattered Clouds
9:55 PM 47.8 °F - 44.6 °F 89% 29.94 in 10.0 mi SSW 5.8 mph - N/A   Scattered Clouds
10:55 PM 48.7 °F - 44.1 °F 84% 29.95 in 10.0 mi WSW 5.8 mph - N/A   Partly Cloudy
11:55 PM 49.1 °F - 44.4 °F 84% 29.96 in 10.0 mi NNW 3.5 mph - N/A   Overcast